Back to catalog

THOR BURNER 2 R/B

AliveSSO
NORAD 4954·ROCKET BODY·🇺🇸 United States

Launched Feb 17, 1971 from Vandenberg Space Force Base

Loading…

Next Passes

TLE

Source: Space-Track
1 04954U 71012B   26228.45503683  .00000081  00000-0  38867-4 0  9992
2 04954  98.3208  80.6341 0037475  52.0156 308.4408 14.39790262904543

Track THOR BURNER 2 R/B in real time with AllMySat

Download on the App Store